Location: Brachbach
(49.1847°N, 9.7240°E)
Time: 00:06:28
(UTC+00:00)

CAS-6 - Visible Passes

Search period start: 14 March 2026 00:00
Search period end: 24 March 2026 00:00
Orbit: 599 x 620 km, 97.8° (Epoch: 13 March)

Date Brightness Start Highest point End Pass type
(mag) Time Alt. Az. Time Alt. Az. Time Alt. Az.
14 Mar ? 21:08:26 17° NNW 21:08:26 17° NNW 21:09:27 10° NNW visible
15 Mar ? 19:45:30 12° NNE 19:45:30 12° NNE 19:46:14 10° NNE visible
15 Mar ? 21:22:26 17° NNW 21:22:26 17° NNW 21:23:24 10° NNW visible
16 Mar ? 19:59:30 15° NNE 19:59:30 15° NNE 20:00:39 10° NNE visible
16 Mar ? 21:36:27 15° NNW 21:36:27 15° NNW 21:37:17 10° NNW visible
17 Mar ? 20:13:30 18° NNE 20:13:30 18° NNE 20:14:55 10° N visible
17 Mar ? 21:50:26 14° NNW 21:50:26 14° NNW 21:51:07 10° NNW visible
18 Mar ? 20:27:30 20° NNE 20:27:30 20° NNE 20:29:06 10° N visible
18 Mar ? 22:04:26 12° NW 22:04:26 12° NW 22:04:51 10° NW visible
19 Mar ? 20:41:30 22° N 20:41:30 22° N 20:43:12 10° N visible
19 Mar ? 22:18:26 10° NW 22:18:26 10° NW 22:18:27 10° NW visible
20 Mar ? 20:55:30 24° N 20:55:30 24° N 20:57:15 10° N visible
21 Mar ? 19:32:33 12° NE 19:32:33 12° NE 19:33:26 10° NNE visible
21 Mar ? 21:09:29 24° NNW 21:09:29 24° NNW 21:11:15 10° NNW visible
22 Mar ? 19:46:32 15° NE 19:46:32 15° NE 19:48:06 10° NNE visible
22 Mar ? 21:23:29 23° NNW 21:23:29 23° NNW 21:25:11 10° NNW visible
23 Mar ? 20:00:32 18° NE 20:00:32 18° NE 20:02:29 10° NNE visible
23 Mar ? 21:37:28 21° NNW 21:37:28 21° NNW 21:39:03 10° NNW visible
